カタログに戻る

TORO

運用中科学SSO
NORAD 60530·PAYLOAD·🇹🇼 Taiwan
この衛星名は、まだ公式ソースで確認されていません。

打ち上げ Aug 16, 2024 から Vandenberg Space Force Base

Loading…

次のパス (今後24時間)

TLE

最新Source: Space-Track

元期: Sep 14, 2026, 10:23 UTC

1 60530U 24149BQ  26257.43272157  .00001619  00000-0  14679-3 0  9994
2 60530  97.6719 330.4156 0001905  84.0062 276.1377 14.96693315113300

AllMySatでTOROをリアルタイム追跡

Download on the App Store